FLOCK 4Q 13

导读 | 星芒AI

FLOCK 4Q 13 是由 Planet Labs 运营的 Dove 系列小型地球观测卫星之一,属于 Flock 4Q 群组的一部分。该卫星主要用于高分辨率光学成像,支持全球范围内的每日重访能力,广泛应用于环境监测、农业、灾害响应和城市规划等领域。卫星采用标准化设计,具备快速部署和低成本优势,通过与 SpaceX 等公司合作发射,进一步提升了数据获取效率和覆盖能力。

基本信息
目录编号:
58328
目录名称:
FLOCK 4Q 13
国际标识:
2023-174CA
轨道中心:
EARTH
卫星名称:
FLOCK 4Q 13
卫星全名:
--
卫星状态:
在轨 (已飞行711 天)
发射日期:
2023-11-11 UTC
国别 :
美国 (US)
星等 :
--
轨道信息
数据来源 国际轨道数据
星历时间: 2025-10-22T12:54:58+0800
9小时前
查看轨道信息
半长轴: 6826.878km
偏心率: 0.0006939
轨道倾角: 97.418°
近地点辐角 295.446°
升交点赤经 16.065°
平近点角 64.606°
近地点: 444.005km
远地点: 453.481km
周期: 93.561分钟
每日圈数: 15.391097
详细信息
使用方式:
暂无
2D轨道图
3D轨道图
轨道高度分析图
轨道倾角分析图
轨道综合分析图
查看轨道综合分析图